Time,TemperatureF,DewpointF,PressureIn,WindDirection,WindDirectionDegrees,WindSpeedMPH,WindSpeedGustMPH,Humidity,HourlyPrecipIn,Conditions,Clouds,dailyrainin,SoftwareType,DateUTC
2013-06-03 00:02:00,54.0,-99.9,29.73,South,191,12.0,23.0,-999,-99.99,,,-99.99,,2013-06-03 07:02:00,
2013-06-03 00:12:00,54.0,-99.9,29.73,SSW,205,11.0,21.0,-999,-99.99,,,-99.99,,2013-06-03 07:12:00,
2013-06-03 00:22:00,54.0,-99.9,29.73,SSW,197,11.0,18.0,-999,-99.99,,,-99.99,,2013-06-03 07:22:00,
2013-06-03 00:32:00,54.0,-99.9,29.73,SSW,204,10.0,19.0,-999,-99.99,,,-99.99,,2013-06-03 07:32:00,
2013-06-03 00:42:00,54.0,-99.9,29.73,SSW,205,9.0,15.0,-999,-99.99,,,-99.99,,2013-06-03 07:42:00,
2013-06-03 00:52:00,55.0,-99.9,29.73,SSW,208,7.0,15.0,-999,-99.99,,,-99.99,,2013-06-03 07:52:00,
2013-06-03 01:02:00,54.0,-99.9,29.73,SSW,201,10.0,15.0,-999,-99.99,,,-99.99,,2013-06-03 08:02:00,
2013-06-03 01:12:00,54.0,-99.9,29.73,SSW,201,10.0,15.0,-999,-99.99,,,-99.99,,2013-06-03 08:12:00,
2013-06-03 01:22:00,54.0,-99.9,29.73,SSW,200,9.0,14.0,-999,-99.99,,,-99.99,,2013-06-03 08:22:00,
2013-06-03 01:32:00,55.0,-99.9,29.74,SSW,200,8.0,12.0,-999,-99.99,,,-99.99,,2013-06-03 08:32:00,
2013-06-03 01:42:00,55.0,-99.9,29.74,SSW,202,7.0,13.0,-999,-99.99,,,-99.99,,2013-06-03 08:42:00,
2013-06-03 01:52:00,54.0,-99.9,29.74,SSW,197,7.0,15.0,-999,-99.99,,,-99.99,,2013-06-03 08:52:00,
2013-06-03 02:02:00,55.0,-99.9,29.73,SSW,201,7.0,13.0,-999,-99.99,,,-99.99,,2013-06-03 09:02:00,
2013-06-03 02:12:00,55.0,-99.9,29.73,SSW,197,7.0,14.0,-999,-99.99,,,-99.99,,2013-06-03 09:12:00,
2013-06-03 02:22:00,54.0,-99.9,29.73,SSW,204,7.0,13.0,-999,-99.99,,,-99.99,,2013-06-03 09:22:00,
2013-06-03 02:33:00,54.0,-99.9,29.73,SSW,196,7.0,13.0,-999,-99.99,,,-99.99,,2013-06-03 09:33:00,
2013-06-03 02:43:00,54.0,-99.9,29.73,SSW,210,5.0,11.0,-999,-99.99,,,-99.99,,2013-06-03 09:43:00,
2013-06-03 02:53:00,55.0,-99.9,29.74,SW,214,3.0,8.0,-999,-99.99,,,-99.99,,2013-06-03 09:53:00,
2013-06-03 03:03:00,55.0,-99.9,29.74,SSW,211,5.0,9.0,-999,-99.99,,,-99.99,,2013-06-03 10:03:00,
2013-06-03 03:13:00,54.0,-99.9,29.74,SW,214,5.0,9.0,-999,-99.99,,,-99.99,,2013-06-03 10:13:00,
2013-06-03 03:22:00,55.0,-99.9,29.74,SW,214,5.0,11.0,-999,-99.99,,,-99.99,,2013-06-03 10:22:00,
2013-06-03 03:33:00,55.0,-99.9,29.74,SW,236,3.0,10.0,-999,-99.99,,,-99.99,,2013-06-03 10:33:00,
2013-06-03 03:42:00,54.0,-99.9,29.74,WSW,257,3.0,8.0,-999,-99.99,,,-99.99,,2013-06-03 10:42:00,
2013-06-03 03:53:00,54.0,-99.9,29.74,WNW,301,3.0,7.0,-999,-99.99,,,-99.99,,2013-06-03 10:53:00,
2013-06-03 04:02:00,54.0,-99.9,29.74,WNW,285,4.0,7.0,-999,-99.99,,,-99.99,,2013-06-03 11:02:00,
2013-06-03 04:12:00,54.0,-99.9,29.74,West,271,4.0,12.0,-999,-99.99,,,-99.99,,2013-06-03 11:12:00,
2013-06-03 04:42:00,54.0,-99.9,29.75,West,266,4.0,11.0,-999,-99.99,,,-99.99,,2013-06-03 11:42:00,
2013-06-03 04:52:00,54.0,-99.9,29.75,West,281,4.0,10.0,-999,-99.99,,,-99.99,,2013-06-03 11:52:00,
2013-06-03 05:02:00,54.0,-99.9,29.74,West,267,4.0,11.0,-999,-99.99,,,-99.99,,2013-06-03 12:02:00,
2013-06-03 05:12:00,54.0,-99.9,29.75,SW,217,3.0,9.0,-999,-99.99,,,-99.99,,2013-06-03 12:12:00,
2013-06-03 05:22:00,54.0,-99.9,29.75,South,184,3.0,10.0,-999,-99.99,,,-99.99,,2013-06-03 12:22:00,
2013-06-03 05:32:00,54.0,-99.9,29.75,SW,225,5.0,11.0,-999,-99.99,,,-99.99,,2013-06-03 12:32:00,
2013-06-03 05:42:00,55.0,-99.9,29.75,SW,216,5.0,11.0,-999,-99.99,,,-99.99,,2013-06-03 12:42:00,
2013-06-03 06:02:00,55.0,-99.9,29.75,SSW,209,5.0,9.0,-999,-99.99,,,-99.99,,2013-06-03 13:02:00,
2013-06-03 06:12:00,55.0,-99.9,29.75,SSW,211,5.0,9.0,-999,-99.99,,,-99.99,,2013-06-03 13:12:00,
2013-06-03 06:33:00,55.0,-99.9,29.76,SSW,208,6.0,10.0,-999,-99.99,,,-99.99,,2013-06-03 13:33:00,
2013-06-03 06:43:00,55.0,-99.9,29.76,SW,215,7.0,10.0,-999,-99.99,,,-99.99,,2013-06-03 13:43:00,
2013-06-03 06:53:00,55.0,-99.9,29.76,SW,231,2.0,10.0,-999,-99.99,,,-99.99,,2013-06-03 13:53:00,
2013-06-03 07:02:00,55.0,-99.9,29.76,SW,223,4.0,9.0,-999,-99.99,,,-99.99,,2013-06-03 14:02:00,
2013-06-03 07:13:00,55.0,-99.9,29.77,SSW,207,6.0,9.0,-999,-99.99,,,-99.99,,2013-06-03 14:13:00,
2013-06-03 07:22:00,55.0,-99.9,29.77,SSW,210,6.0,11.0,-999,-99.99,,,-99.99,,2013-06-03 14:22:00,
2013-06-03 07:33:00,55.0,-99.9,29.77,SSW,212,6.0,9.0,-999,-99.99,,,-99.99,,2013-06-03 14:33:00,
2013-06-03 07:42:00,55.0,-99.9,29.78,SSW,211,6.0,10.0,-999,-99.99,,,-99.99,,2013-06-03 14:42:00,
2013-06-03 07:52:00,55.0,-99.9,29.78,SSW,208,6.0,9.0,-999,-99.99,,,-99.99,,2013-06-03 14:52:00,
2013-06-03 08:02:00,55.0,-99.9,29.78,SSW,212,5.0,10.0,-999,-99.99,,,-99.99,,2013-06-03 15:02:00,
2013-06-03 08:12:00,56.0,-99.9,29.78,SSW,202,4.0,7.0,-999,-99.99,,,-99.99,,2013-06-03 15:12:00,
2013-06-03 08:22:00,55.0,-99.9,29.79,West,264,3.0,9.0,-999,-99.99,,,-99.99,,2013-06-03 15:22:00,
2013-06-03 08:33:00,55.0,-99.9,29.79,West,271,4.0,8.0,-999,-99.99,,,-99.99,,2013-06-03 15:33:00,
2013-06-03 08:43:00,55.0,-99.9,29.79,West,266,3.0,11.0,-999,-99.99,,,-99.99,,2013-06-03 15:43:00,
2013-06-03 08:53:00,56.0,-99.9,29.80,WNW,283,3.0,11.0,-999,-99.99,,,-99.99,,2013-06-03 15:53:00,
2013-06-03 09:03:00,55.0,-99.9,29.80,West,272,4.0,9.0,-999,-99.99,,,-99.99,,2013-06-03 16:03:00,
2013-06-03 09:13:00,55.0,-99.9,29.80,West,275,5.0,11.0,-999,-99.99,,,-99.99,,2013-06-03 16:13:00,
2013-06-03 09:23:00,55.0,-99.9,29.80,West,275,4.0,10.0,-999,-99.99,,,-99.99,,2013-06-03 16:23:00,
2013-06-03 09:33:00,56.0,-99.9,29.81,West,267,3.0,9.0,-999,-99.99,,,-99.99,,2013-06-03 16:33:00,
2013-06-03 09:42:00,56.0,-99.9,29.80,WNW,282,4.0,10.0,-999,-99.99,,,-99.99,,2013-06-03 16:42:00,
2013-06-03 09:53:00,56.0,-99.9,29.81,SSW,209,4.0,10.0,-999,-99.99,,,-99.99,,2013-06-03 16:53:00,
2013-06-03 10:02:00,57.0,-99.9,29.81,SSW,192,3.0,12.0,-999,-99.99,,,-99.99,,2013-06-03 17:02:00,
2013-06-03 10:12:00,56.0,-99.9,29.82,SW,217,4.0,13.0,-999,-99.99,,,-99.99,,2013-06-03 17:12:00,
2013-06-03 10:33:00,57.0,-99.9,29.82,SSW,202,9.0,14.0,-999,-99.99,,,-99.99,,2013-06-03 17:33:00,
2013-06-03 10:42:00,57.0,-99.9,29.82,SW,219,6.0,15.0,-999,-99.99,,,-99.99,,2013-06-03 17:42:00,
2013-06-03 10:52:00,57.0,-99.9,29.82,SW,217,3.0,14.0,-999,-99.99,,,-99.99,,2013-06-03 17:52:00,
2013-06-03 11:12:00,57.0,-99.9,29.83,NW,317,2.0,12.0,-999,-99.99,,,-99.99,,2013-06-03 18:12:00,
2013-06-03 11:22:00,57.0,-99.9,29.83,WSW,241,5.0,17.0,-999,-99.99,,,-99.99,,2013-06-03 18:22:00,
2013-06-03 11:32:00,57.0,-99.9,29.83,WSW,237,4.0,10.0,-999,-99.99,,,-99.99,,2013-06-03 18:32:00,
2013-06-03 11:43:00,57.0,-99.9,29.83,SW,231,2.0,9.0,-999,-99.99,,,-99.99,,2013-06-03 18:43:00,
2013-06-03 12:03:00,57.0,-99.9,29.83,WNW,285,4.0,11.0,-999,-99.99,,,-99.99,,2013-06-03 19:03:00,
2013-06-03 12:12:00,58.0,-99.9,29.83,West,277,5.0,14.0,-999,-99.99,,,-99.99,,2013-06-03 19:12:00,
2013-06-03 12:23:00,58.0,-99.9,29.83,West,281,4.0,12.0,-999,-99.99,,,-99.99,,2013-06-03 19:23:00,
2013-06-03 12:33:00,58.0,-99.9,29.83,South,188,2.0,12.0,-999,-99.99,,,-99.99,,2013-06-03 19:33:00,
2013-06-03 12:42:00,58.0,-99.9,29.84,SW,225,4.0,12.0,-999,-99.99,,,-99.99,,2013-06-03 19:42:00,
2013-06-03 12:53:00,58.0,-99.9,29.84,WSW,244,3.0,13.0,-999,-99.99,,,-99.99,,2013-06-03 19:53:00,
2013-06-03 13:02:00,58.0,-99.9,29.84,WSW,253,3.0,12.0,-999,-99.99,,,-99.99,,2013-06-03 20:02:00,
2013-06-03 13:13:00,58.0,-99.9,29.84,WSW,242,5.0,11.0,-999,-99.99,,,-99.99,,2013-06-03 20:13:00,
2013-06-03 13:22:00,58.0,-99.9,29.84,WNW,286,4.0,11.0,-999,-99.99,,,-99.99,,2013-06-03 20:22:00,
2013-06-03 13:33:00,58.0,-99.9,29.84,West,269,4.0,16.0,-999,-99.99,,,-99.99,,2013-06-03 20:33:00,
2013-06-03 13:43:00,59.0,-99.9,29.84,WSW,246,4.0,11.0,-999,-99.99,,,-99.99,,2013-06-03 20:43:00,
2013-06-03 13:53:00,59.0,-99.9,29.84,West,278,4.0,12.0,-999,-99.99,,,-99.99,,2013-06-03 20:53:00,
2013-06-03 14:03:00,59.0,-99.9,29.84,West,262,3.0,13.0,-999,-99.99,,,-99.99,,2013-06-03 21:03:00,
2013-06-03 14:12:00,59.0,-99.9,29.84,WNW,282,3.0,12.0,-999,-99.99,,,-99.99,,2013-06-03 21:12:00,
2013-06-03 14:22:00,60.0,-99.9,29.85,South,179,2.0,13.0,-999,-99.99,,,-99.99,,2013-06-03 21:22:00,
2013-06-03 14:33:00,60.0,-99.9,29.85,West,262,4.0,16.0,-999,-99.99,,,-99.99,,2013-06-03 21:33:00,
2013-06-03 14:43:00,59.0,-99.9,29.85,West,280,4.0,12.0,-999,-99.99,,,-99.99,,2013-06-03 21:43:00,
2013-06-03 14:53:00,59.0,-99.9,29.85,West,270,6.0,15.0,-999,-99.99,,,-99.99,,2013-06-03 21:53:00,
2013-06-03 15:03:00,59.0,-99.9,29.85,West,262,6.0,13.0,-999,-99.99,,,-99.99,,2013-06-03 22:03:00,
2013-06-03 15:13:00,59.0,-99.9,29.85,West,264,5.0,16.0,-999,-99.99,,,-99.99,,2013-06-03 22:13:00,
2013-06-03 15:23:00,59.0,-99.9,29.85,West,280,5.0,13.0,-999,-99.99,,,-99.99,,2013-06-03 22:23:00,
2013-06-03 15:33:00,60.0,-99.9,29.85,West,261,4.0,12.0,-999,-99.99,,,-99.99,,2013-06-03 22:33:00,
2013-06-03 15:42:00,59.0,-99.9,29.85,West,261,6.0,14.0,-999,-99.99,,,-99.99,,2013-06-03 22:42:00,
2013-06-03 15:53:00,60.0,-99.9,29.85,WNW,289,3.0,11.0,-999,-99.99,,,-99.99,,2013-06-03 22:53:00,
2013-06-03 16:02:00,59.0,-99.9,29.84,West,278,5.0,17.0,-999,-99.99,,,-99.99,,2013-06-03 23:02:00,
2013-06-03 16:12:00,59.0,-99.9,29.84,West,264,7.0,17.0,-999,-99.99,,,-99.99,,2013-06-03 23:12:00,
2013-06-03 16:23:00,60.0,-99.9,29.84,West,279,4.0,13.0,-999,-99.99,,,-99.99,,2013-06-03 23:23:00,
2013-06-03 16:32:00,60.0,-99.9,29.84,West,270,5.0,11.0,-999,-99.99,,,-99.99,,2013-06-03 23:32:00,
2013-06-03 16:42:00,60.0,-99.9,29.84,West,264,4.0,13.0,-999,-99.99,,,-99.99,,2013-06-03 23:42:00,
2013-06-03 16:52:00,60.0,-99.9,29.84,West,259,6.0,13.0,-999,-99.99,,,-99.99,,2013-06-03 23:52:00,
2013-06-03 17:02:00,59.0,-99.9,29.84,WNW,288,5.0,11.0,-999,-99.99,,,-99.99,,2013-06-04 00:02:00,
2013-06-03 17:12:00,59.0,-99.9,29.84,West,275,6.0,15.0,-999,-99.99,,,-99.99,,2013-06-04 00:12:00,
2013-06-03 17:22:00,59.0,-99.9,29.84,West,263,4.0,11.0,-999,-99.99,,,-99.99,,2013-06-04 00:22:00,
2013-06-03 17:32:00,59.0,-99.9,29.83,WSW,245,3.0,11.0,-999,-99.99,,,-99.99,,2013-06-04 00:32:00,
2013-06-03 17:52:00,59.0,-99.9,29.83,West,264,4.0,12.0,-999,-99.99,,,-99.99,,2013-06-04 00:52:00,
2013-06-03 18:02:00,59.0,-99.9,29.83,WSW,241,4.0,14.0,-999,-99.99,,,-99.99,,2013-06-04 01:02:00,
2013-06-03 18:12:00,59.0,-99.9,29.83,WSW,252,3.0,11.0,-999,-99.99,,,-99.99,,2013-06-04 01:12:00,
2013-06-03 18:22:00,59.0,-99.9,29.82,West,279,4.0,11.0,-999,-99.99,,,-99.99,,2013-06-04 01:22:00,
2013-06-03 18:32:00,59.0,-99.9,29.83,West,275,4.0,14.0,-999,-99.99,,,-99.99,,2013-06-04 01:32:00,
2013-06-03 18:42:00,59.0,-99.9,29.83,WNW,284,5.0,10.0,-999,-99.99,,,-99.99,,2013-06-04 01:42:00,
2013-06-03 18:53:00,58.0,-99.9,29.83,West,266,7.0,15.0,-999,-99.99,,,-99.99,,2013-06-04 01:53:00,
2013-06-03 19:03:00,59.0,-99.9,29.83,West,264,3.0,11.0,-999,-99.99,,,-99.99,,2013-06-04 02:03:00,
2013-06-03 19:12:00,59.0,-99.9,29.83,WNW,285,2.0,8.0,-999,-99.99,,,-99.99,,2013-06-04 02:12:00,
2013-06-03 19:22:00,58.0,-99.9,29.83,SSW,203,4.0,8.0,-999,-99.99,,,-99.99,,2013-06-04 02:22:00,
2013-06-03 19:32:00,58.0,-99.9,29.83,WNW,289,2.0,7.0,-999,-99.99,,,-99.99,,2013-06-04 02:32:00,
2013-06-03 19:42:00,58.0,-99.9,29.84,West,272,2.0,5.0,-999,-99.99,,,-99.99,,2013-06-04 02:42:00,
2013-06-03 19:52:00,58.0,-99.9,29.84,SSW,202,3.0,15.0,-999,-99.99,,,-99.99,,2013-06-04 02:52:00,
2013-06-03 20:12:00,57.0,-99.9,29.85,SSW,205,8.0,11.0,-999,-99.99,,,-99.99,,2013-06-04 03:12:00,
2013-06-03 20:22:00,57.0,-99.9,29.85,SSW,211,8.0,11.0,-999,-99.99,,,-99.99,,2013-06-04 03:22:00,
2013-06-03 20:33:00,57.0,-99.9,29.85,SSW,211,6.0,11.0,-999,-99.99,,,-99.99,,2013-06-04 03:33:00,
2013-06-03 20:43:00,56.0,-99.9,29.85,SSW,207,6.0,11.0,-999,-99.99,,,-99.99,,2013-06-04 03:43:00,
2013-06-03 21:03:00,56.0,-99.9,29.86,SW,230,4.0,9.0,-999,-99.99,,,-99.99,,2013-06-04 04:03:00,
2013-06-03 21:13:00,56.0,-99.9,29.86,West,260,4.0,9.0,-999,-99.99,,,-99.99,,2013-06-04 04:13:00,
2013-06-03 21:23:00,56.0,-99.9,29.86,SW,233,4.0,7.0,-999,-99.99,,,-99.99,,2013-06-04 04:23:00,
2013-06-03 21:33:00,56.0,-99.9,29.86,West,270,4.0,11.0,-999,-99.99,,,-99.99,,2013-06-04 04:33:00,
2013-06-03 21:42:00,56.0,-99.9,29.86,West,276,5.0,12.0,-999,-99.99,,,-99.99,,2013-06-04 04:42:00,
2013-06-03 21:53:00,56.0,-99.9,29.86,WNW,286,5.0,9.0,-999,-99.99,,,-99.99,,2013-06-04 04:53:00,
2013-06-03 22:03:00,56.0,-99.9,29.87,WSW,256,5.0,9.0,-999,-99.99,,,-99.99,,2013-06-04 05:03:00,
2013-06-03 22:12:00,56.0,-99.9,29.87,SW,214,3.0,10.0,-999,-99.99,,,-99.99,,2013-06-04 05:12:00,
2013-06-03 22:22:00,56.0,-99.9,29.87,WNW,301,3.0,10.0,-999,-99.99,,,-99.99,,2013-06-04 05:22:00,
2013-06-03 22:32:00,56.0,-99.9,29.87,West,278,4.0,11.0,-999,-99.99,,,-99.99,,2013-06-04 05:32:00,
2013-06-03 22:42:00,56.0,-99.9,29.87,West,278,4.0,9.0,-999,-99.99,,,-99.99,,2013-06-04 05:42:00,
2013-06-03 23:02:00,56.0,-99.9,29.87,WNW,291,5.0,8.0,-999,-99.99,,,-99.99,,2013-06-04 06:02:00,
2013-06-03 23:12:00,56.0,-99.9,29.87,West,278,3.0,7.0,-999,-99.99,,,-99.99,,2013-06-04 06:12:00,
2013-06-03 23:22:00,56.0,-99.9,29.87,West,272,4.0,7.0,-999,-99.99,,,-99.99,,2013-06-04 06:22:00,
2013-06-03 23:32:00,56.0,-99.9,29.87,West,279,4.0,10.0,-999,-99.99,,,-99.99,,2013-06-04 06:32:00,
2013-06-03 23:42:00,56.0,-99.9,29.87,West,269,5.0,8.0,-999,-99.99,,,-99.99,,2013-06-04 06:42:00,
2013-06-03 23:52:00,55.0,-99.9,29.87,West,274,4.0,9.0,-999,-99.99,,,-99.99,,2013-06-04 06:52:00,